Regional Weather Roundup
Issued by NWS

Home | Current Version | Previous Version | Text Only | Print | Product List | Glossary Off
Versions: 1 2 3 4 5 6 7 8 9 10 11 12 13 14 15 16 17 18 19 20 21 22 23 24 25 26 27 28 29 30 31 32 33 34 35 36 37 38 39 40 41 42 43 44 45 46 47 48 49 50

000
ASUS45 KCYS 031410
RWRWY

WYOMING REGIONAL WEATHER ROUNDUP
NATIONAL WEATHER SERVICE CHEYENNE WY
800 AM MDT THU SEP 03 2015

NOTE:  "FAIR" INDICATES FEW OR NO CLOUDS BELOW 12,000 FEET
WITH NO SIGNIFICANT WEATHER AND/OR OBSTRUCTIONS TO VISIBILITY.

WYZ001-031500-
YELLOWSTONE NATIONAL PARK

CITY           SKY/WX    TMP DP  RH WIND       PRES   REMARKS
LK YELLOWSTONE   N/A     49  47  93 CALM      30.10R
W YELLOWSTONE  NOT AVBL

$$
WYZ002>013-054>058-071-098>099-031500-
NORTHERN WYOMING

CITY           SKY/WX    TMP DP  RH WIND       PRES   REMARKS
JACKSON        MOSUNNY   55  39  54 S7        30.01R
CODY           FAIR      59  37  44 NE8       29.93R
GREYBULL       FAIR      66  36  32 SW6       29.84R
WORLAND        FAIR      67  44  43 S6        29.84R
SHERIDAN       FAIR      64  36  35 W20       29.89R
BUFFALO        FAIR      69  37  30 N5        29.92S
GILLETTE       FAIR      71  40  32 W9        29.87R
HULETT         FAIR      70  41  35 S8        29.87R
NEWCASTLE      FAIR      66  41  39 SE5       29.91R

$$
WYZ014>020-022>026-101>103-031500-
CENTRAL WYOMING

CITY           SKY/WX    TMP DP  RH WIND       PRES   REMARKS
BIG PINEY      FAIR      47  33  58 CALM      30.11R
PINEDALE       PTSUNNY   52  36  54 CALM      30.12R
DUBOIS         FAIR      52  34  50 NW13      30.06S
LANDER         FAIR      69  36  29 W8        29.95S
RIVERTON       FAIR      62  40  44 NW7       29.96S
CASPER         FAIR      71  39  31 S17       29.98R
DOUGLAS        FAIR      64  42  44 CALM      29.98R

$$
WYZ021-027>030-104>119-031500-
SOUTHERN WYOMING

CITY           SKY/WX    TMP DP  RH WIND       PRES   REMARKS
EVANSTON       FAIR      61  36  39 SW13      30.11S
KEMMERER       FAIR      57  34  41 CALM      30.12S
FORT BRIDGER   SUNNY     66  36  32 SW10      30.14R
ROCK SPRINGS   FAIR      62  39  42 SE8       30.11R
DIXON          FAIR      55  47  75 CALM      30.16R
RAWLINS        FAIR      65  40  39 S8        30.12R
SARATOGA       FAIR      57  43  58 SE7       30.16S
LARAMIE        FAIR      59  45  59 VRB5      30.18R
CHEYENNE       FAIR      64  46  52 SW5       30.09R
TORRINGTON     FAIR      64  53  67 CALM      29.93R
PINE BLUFFS    FAIR      59  45  58 CALM      30.03R

$$


USA.gov is the U.S. government's official web portal to all federal, state and local government web resources and services.